�����y���������,,,,
���t,�n�l,���l,���l,�I�l
2024/4/19,81400,81400,81400,81400
2024/4/18,82000,82000,82000,82000
2024/4/17,81800,81800,81800,81800
2024/4/16,82700,82700,82700,82700
2024/4/15,82800,82800,82800,82800
2024/4/12,82700,82700,82700,82700
2024/4/11,83100,83100,83100,83100
2024/4/10,83400,83400,83400,83400
2024/4/9,83400,83400,83400,83400
2024/4/8,83400,83400,83400,83400
2024/4/5,83600,83600,83600,83600
2024/4/4,83000,83000,83000,83000
2024/4/3,83000,83000,83000,83000
2024/4/2,82900,82900,82900,82900
2024/4/1,82900,82900,82900,82900
2024/3/29,82000,82000,82000,82000
2024/3/28,82000,82000,82000,82000
2024/3/27,81500,81500,81500,81500
2024/3/26,81700,81700,81700,81700
2024/3/25,81500,81500,81500,81500
2024/3/22,81700,81700,81700,81700
2024/3/21,81600,81600,81600,81600
2024/3/19,81400,81400,81400,81400
2024/3/18,81300,81300,81300,81300
2024/3/15,81300,81300,81300,81300
2024/3/14,81300,81300,81300,81300
2024/3/13,81000,81000,81000,81000
2024/3/12,81400,81400,81400,81400
2024/3/11,81400,81400,81400,81400
2024/3/7,82100,82100,82100,82100
2024/3/7,82000,82000,82000,82000
2024/3/6,82000,82000,82000,82000
2024/3/5,82000,82000,82000,82000
2024/3/4,82000,82000,82000,82000
2024/3/1,82000,82000,82000,82000
2024/2/29,82000,82000,82000,82000
2024/2/28,82100,82100,82100,82100
2024/2/27,82000,82000,82000,82000
2024/2/26,81900,81900,81900,81900
2024/2/22,81800,81800,81800,81800
2024/2/21,81300,81300,81300,81300
2024/2/20,81200,81200,81200,81200
2024/2/19,81200,81200,81200,81200
2024/2/16,81200,81200,81200,81200
2024/2/15,80600,80600,80600,80600
2024/2/14,80800,80800,80800,80800
2024/2/13,80800,80800,80800,80800
2024/2/9,80800,80800,80800,80800
2024/2/8,80600,80600,80600,80600
2024/2/7,80400,80400,80400,80400
2024/2/6,80300,80300,80300,80300
2024/2/5,80200,80200,80200,80200
2024/2/2,80300,80300,80300,80300
2024/2/1,80700,80700,80700,80700
2024/1/31,80700,80700,80700,80700
2024/1/30,80800,80800,80800,80800
2024/1/29,81300,81300,81300,81300
2024/1/26,81700,81700,81700,81700
2024/1/25,81700,81700,81700,81700
2024/1/24,82300,82300,82300,82300
2024/1/23,82400,82400,82400,82400
2024/1/22,82500,82500,82500,82500
2024/1/19,82500,82500,82500,82500
2024/1/18,82500,82500,82500,82500
2024/1/17,82800,82800,82800,82800
2024/1/16,82900,82900,82900,82900
2024/1/15,83000,83000,83000,83000
2024/1/12,83000,83000,83000,83000
2024/1/11,81000,81000,81000,81000
2024/1/10,81700,81700,81700,81700
2024/1/9,81400,81400,81400,81400
2024/1/5,80900,80900,80900,80900
2024/1/4,80700,80700,80700,80700
2023/12/29,80900,80900,80900,80900
2023/12/28,80900,80900,80900,80900
2023/12/27,80300,80300,80300,80300
2023/12/26,80100,80100,80100,80100
2023/12/25,79600,79600,79600,79600
2023/12/22,79500,79500,79500,79500
2023/12/21,79400,79400,79400,79400
2023/12/20,79600,79600,79600,79600
2023/12/19,79600,79600,79600,79600
2023/12/18,79600,79600,79600,79600
2023/12/15,79600,79600,79600,79600
2023/12/14,79300,79300,79300,79300
2023/12/13,78700,78700,78700,78700
2023/12/12,78500,78500,78500,78500
2023/12/11,78500,78500,78500,78500
2023/12/8,78500,78500,78500,78500
2023/12/7,78700,78700,78700,78700
2023/12/6,77100,77100,77100,77100
2023/12/5,77100,77100,77100,77100
2023/12/4,77000,77000,77000,77000
2023/12/1,76900,76900,76900,76900
2023/11/30,76700,76700,76700,76700
2023/11/29,76100,76100,76100,76100
2023/11/28,75900,75900,75900,75900
2023/11/27,76300,76300,76300,76300
2023/11/24,76200,76200,76200,76200
2023/11/22,75800,75800,75800,75800
2023/11/21,75600,75600,75600,75600
2023/11/20,75500,75500,75500,75500
2023/11/17,75400,75400,75400,75400
2023/11/16,75400,75400,75400,75400
2023/11/15,75100,75100,75100,75100
2023/11/14,75000,75000,75000,75000
2023/11/13,74700,74700,74700,74700
2023/11/10,74400,74400,74400,74400
2023/11/9,74500,74500,74500,74500
2023/11/8,74100,74100,74100,74100
2023/11/7,74400,74400,74400,74400
2023/11/6,72400,72400,72400,72400
2023/11/2,72400,72400,72400,72400
2023/11/1,72000,72000,72000,72000
2023/10/31,71900,71900,71900,71900
2023/10/30,71900,71900,71900,71900
2023/10/27,71600,71600,71600,71600
2023/10/26,71900,71900,71900,71900
2023/10/25,70500,70500,70500,70500
2023/10/24,70400,70400,70400,70400
2023/10/23,70400,70400,70400,70400
2023/10/20,70400,70400,70400,70400
2023/10/19,70600,70600,70600,70600
2023/10/18,70600,70600,70600,70600
2023/10/17,71900,71900,71900,71900
2023/10/16,71900,71900,71900,71900
2023/10/13,71400,71400,71400,71400
2023/10/12,71400,71400,71400,71400
2023/10/11,72800,72800,72800,72800
2023/10/10,73300,73300,73300,73300
2023/10/6,72400,72400,72400,72400
2023/10/5,73200,73200,73200,73200
2023/10/4,75000,75000,75000,75000
2023/10/3,76000,76000,76000,76000
2023/10/2,76700,76700,76700,76700
2023/9/29,76500,76500,76500,76500
2023/9/28,76800,76800,76800,76800
2023/9/27,79500,79500,79500,79500
2023/9/26,79900,79900,79900,79900
2023/9/25,80100,80100,80100,80100
2023/9/22,80300,80300,80300,80300
2023/9/21,80200,80200,80200,80200
2023/9/20,80700,80700,80700,80700
2023/9/19,81000,81000,81000,81000
2023/9/15,81600,81600,81600,81600
2023/9/14,81700,81700,81700,81700
2023/9/13,83600,83600,83600,83600
2023/9/12,84800,84800,84800,84800
2023/9/11,84700,84700,84700,84700
2023/9/8,84800,84800,84800,84800
2023/9/7,84900,84900,84900,84900
2023/9/6,86700,86700,86700,86700
2023/9/5,88500,88500,88500,88500
2023/9/4,89400,89400,89400,89400
2023/9/1,89300,89300,89300,89300
2023/8/31,89400,89400,89400,89400
2023/8/30,89400,89400,89400,89400
2023/8/29,89400,89400,89400,89400
2023/8/28,89600,89600,89600,89600
2023/8/25,89900,89900,89900,89900
2023/8/24,89900,89900,89900,89900
2023/8/23,89400,89400,89400,89400
2023/8/22,89000,89000,89000,89000
2023/8/21,89000,89000,89000,89000
2023/8/18,88900,88900,88900,88900
2023/8/17,89000,89000,89000,89000
2023/8/16,88100,88100,88100,88100
2023/8/15,87500,87500,87500,87500
2023/8/14,87400,87400,87400,87400
2023/8/10,87400,87400,87400,87400
2023/8/9,87400,87400,87400,87400
2023/8/8,87600,87600,87600,87600
2023/8/7,87600,87600,87600,87600
2023/8/4,87800,87800,87800,87800
2023/8/3,87800,87800,87800,87800
2023/8/2,84800,84800,84800,84800
2023/8/1,83600,83600,83600,83600
2023/7/31,83600,83600,83600,83600
2023/7/28,83500,83500,83500,83500
2023/7/27,83500,83500,83500,83500
2023/7/26,82500,82500,82500,82500
2023/7/25,82600,82600,82600,82600
2023/7/24,82500,82500,82500,82500
2023/7/21,82400,82400,82400,82400
2023/7/20,82600,82600,82600,82600
2023/7/19,82200,82200,82200,82200
2023/7/18,82000,82000,82000,82000
2023/7/14,81600,81600,81600,81600
2023/7/13,81600,81600,81600,81600
2023/7/12,81300,81300,81300,81300
2023/7/11,81000,81000,81000,81000
2023/7/10,80900,80900,80900,80900
2023/7/7,80800,80800,80800,80800
2023/7/6,80800,80800,80800,80800
2023/7/5,81200,81200,81200,81200
2023/7/4,81100,81100,81100,81100
2023/7/3,81100,81100,81100,81100
2023/6/30,79900,79900,79900,79900
2023/6/29,79800,79800,79800,79800
2023/6/28,78800,78800,78800,78800
2023/6/27,78700,78700,78700,78700
2023/6/26,78600,78600,78600,78600
2023/6/23,78800,78800,78800,78800
2023/6/22,78500,78500,78500,78500
2023/6/21,78400,78400,78400,78400
2023/6/20,78400,78400,78400,78400
2023/6/19,77900,77900,77900,77900
2023/6/16,77900,77900,77900,77900
2023/6/15,77700,77700,77700,77700
2023/6/14,76600,76600,76600,76600
2023/6/13,76500,76500,76500,76500
2023/6/12,76400,76400,76400,76400
2023/6/9,75300,75300,75300,75300
2023/6/8,75300,75300,75300,75300
2023/6/7,74900,74900,74900,74900
2023/6/6,74600,74600,74600,74600
2023/6/5,74600,74600,74600,74600
2023/6/2,74600,74600,74600,74600
2023/6/1,74800,74800,74800,74800
2023/5/31,74300,74300,74300,74300
2023/5/30,74300,74300,74300,74300
2023/5/29,74100,74100,74100,74100
2023/5/26,73600,73600,73600,73600
2023/5/25,74000,74000,74000,74000
2023/5/24,74000,74000,74000,74000
2023/5/23,74100,74100,74100,74100
2023/5/22,73900,73900,73900,73900
2023/5/19,74000,74000,74000,74000
2023/5/18,73900,73900,73900,73900
2023/5/17,72700,72700,72700,72700
2023/5/16,72700,72700,72700,72700
2023/5/15,72600,72600,72600,72600
2023/5/12,72600,72600,72600,72600
2023/5/11,72600,72600,72600,72600
2023/5/10,72400,72400,72400,72400
2023/5/9,72400,72400,72400,72400
2023/5/8,72400,72400,72400,72400
2023/5/2,73100,73100,73100,73100
2023/5/1,73100,73100,73100,73100
2023/4/28,73200,73200,73200,73200
2023/4/27,73300,73300,73300,73300
2023/4/26,73200,73200,73200,73200
2023/4/25,73400,73400,73400,73400
2023/4/24,74300,74300,74300,74300
2023/4/21,74300,74300,74300,74300
2023/4/20,74200,74200,74200,74200
2023/4/19,74400,74400,74400,74400
2023/4/18,74400,74400,74400,74400
2023/4/17,74700,74700,74700,74700
2023/4/14,74800,74800,74800,74800
2023/4/13,74900,74900,74900,74900
2023/4/12,75400,75400,75400,75400
2023/4/11,75500,75500,75500,75500
2023/4/10,75500,75500,75500,75500
2023/4/7,75500,75500,75500,75500
2023/4/6,75500,75500,75500,75500
2023/4/5,75100,75100,75100,75100
2023/4/4,75000,75000,75000,75000
2023/4/3,75000,75000,75000,75000
2023/3/31,75100,75100,75100,75100
2023/3/30,75100,75100,75100,75100
2023/3/29,75200,75200,75200,75200
2023/3/28,74900,74900,74900,74900
2023/3/27,74900,74900,74900,74900
2023/3/24,75300,75300,75300,75300
2023/3/23,75200,75200,75200,75200
2023/3/22,73900,73900,73900,73900
2023/3/20,73700,73700,73700,73700
2023/3/17,73700,73700,73700,73700
2023/3/16,73500,73500,73500,73500
2023/3/15,73700,73700,73700,73700
2023/3/14,73700,73700,73700,73700
2023/3/13,73600,73600,73600,73600
2023/3/10,73500,73500,73500,73500
2023/3/9,73400,73400,73400,73400
2023/3/8,73100,73100,73100,73100
2023/3/7,73100,73100,73100,73100
2023/3/6,73000,73000,73000,73000
2023/3/3,72800,72800,72800,72800
2023/3/2,72800,72800,72800,72800
2023/3/1,72300,72300,72300,72300
2023/2/28,72300,72300,72300,72300
2023/2/27,72400,72400,72400,72400
2023/2/24,72500,72500,72500,72500
2023/2/22,72600,72600,72600,72600
2023/2/21,72600,72600,72600,72600
2023/2/20,72900,72900,72900,72900
2023/2/17,72900,72900,72900,72900
2023/2/16,73000,73000,73000,73000
2023/2/15,72600,72600,72600,72600
2023/2/14,72600,72600,72600,72600
2023/2/13,72700,72700,72700,72700
2023/2/10,72600,72600,72600,72600
2023/2/9,72700,72700,72700,72700
2023/2/8,72500,72500,72500,72500
2023/2/7,72500,72500,72500,72500
2023/2/6,72500,72500,72500,72500
2023/2/3,72700,72700,72700,72700
2023/2/2,72700,72700,72700,72700
2023/2/1,73200,73200,73200,73200
2023/1/31,73500,73500,73500,73500
2023/1/30,73600,73600,73600,73600
2023/1/27,73800,73800,73800,73800
2023/1/26,73800,73800,73800,73800
2023/1/25,74200,74200,74200,74200
2023/1/24,74600,74600,74600,74600
2023/1/23,74600,74600,74600,74600
2023/1/20,74600,74600,74600,74600
2023/1/19,74500,74500,74500,74500
2023/1/18,74200,74200,74200,74200
2023/1/17,74000,74000,74000,74000
2023/1/16,73800,73800,73800,73800
2023/1/13,73800,73800,73800,73800
2023/1/12,73800,73800,73800,73800
2023/1/11,74400,74400,74400,74400
2023/1/10,74700,74700,74700,74700
2023/1/6,72600,72600,72600,72600
2023/1/5,72600,72600,72600,72600
2023/1/4,72000,72000,72000,72000
2022/12/30,72000,72000,72000,72000
2022/12/29,72000,72000,72000,72000
2022/12/28,71900,71900,71900,71900
2022/12/27,71900,71900,71900,71900
2022/12/26,71900,71900,71900,71900
2022/12/23,72100,72100,72100,72100
2022/12/22,72100,72100,72100,72100
2022/12/21,72100,72100,72100,72100
2022/12/20,72100,72100,72100,72100
2022/12/19,72000,72000,72000,72000
2022/12/16,72100,72100,72100,72100
2022/12/15,72200,72200,72200,72200
2022/12/14,72500,72500,72500,72500
2022/12/13,72600,72600,72600,72600
2022/12/12,72700,72700,72700,72700
2022/12/9,72700,72700,72700,72700
2022/12/8,72800,72800,72800,72800
2022/12/7,73000,73000,73000,73000
2022/12/6,73100,73100,73100,73100
2022/12/5,73200,73200,73200,73200
2022/12/2,73200,73200,73200,73200
2022/12/1,73100,73100,73100,73100
2022/11/30,72400,72400,72400,72400
2022/11/29,71900,71900,71900,71900
2022/11/28,71800,71800,71800,71800
2022/11/25,72000,72000,72000,72000
2022/11/24,72000,72000,72000,72000
2022/11/22,71900,71900,71900,71900
2022/11/21,71800,71800,71800,71800
2022/11/18,71100,71100,71100,71100
2022/11/17,71200,71200,71200,71200
2022/11/16,71100,71100,71100,71100
2022/11/15,70900,70900,70900,70900
2022/11/14,71500,71500,71500,71500
2022/11/11,71400,71400,71400,71400
2022/11/10,71300,71300,71300,71300
2022/11/9,70900,70900,70900,70900
2022/11/8,71000,71000,71000,71000
2022/11/7,71100,71100,71100,71100
2022/11/4,70900,70900,70900,70900
2022/11/2,72000,72000,72000,72000
2022/11/1,72000,72000,72000,72000
2022/10/31,72100,72100,72100,72100
2022/10/28,72100,72100,72100,72100
2022/10/27,72100,72100,72100,72100
2022/10/26,72500,72500,72500,72500
2022/10/25,72500,72500,72500,72500
2022/10/24,72400,72400,72400,72400
2022/10/21,72400,72400,72400,72400
2022/10/20,72400,72400,72400,72400
2022/10/19,72100,72100,72100,72100
2022/10/18,72300,72300,72300,72300
2022/10/17,72600,72600,72600,72600
2022/10/14,72800,72800,72800,72800
2022/10/13,72600,72600,72600,72600
2022/10/12,71800,71800,71800,71800
2022/10/11,71900,71900,71900,71900
2022/10/7,71800,71800,71800,71800
2022/10/6,71500,71500,71500,71500
2022/10/5,71900,71900,71900,71900
2022/10/4,71700,71700,71700,71700
2022/10/3,71700,71700,71700,71700
2022/9/30,71700,71700,71700,71700
2022/9/29,71500,71500,71500,71500
2022/9/28,71300,71300,71300,71300
2022/9/27,71600,71600,71600,71600
2022/9/26,73600,73600,73600,73600
2022/9/22,72600,72600,72600,72600
2022/9/21,74000,74000,74000,74000
2022/9/20,74000,74000,74000,74000
2022/9/16,74000,74000,74000,74000
2022/9/15,74100,74100,74100,74100
2022/9/14,74500,74500,74500,74500
2022/9/13,74500,74500,74500,74500
2022/9/12,74500,74500,74500,74500
2022/9/9,74500,74500,74500,74500
2022/9/8,74500,74500,74500,74500
2022/9/7,75200,75200,75200,75200
2022/9/6,75400,75400,75400,75400
2022/9/5,75500,75500,75500,75500
2022/9/2,75500,75500,75500,75500
2022/9/1,75500,75500,75500,75500
2022/8/31,74700,74700,74700,74700
2022/8/30,74800,74800,74800,74800
2022/8/29,74800,74800,74800,74800
2022/8/26,74600,74600,74600,74600
2022/8/25,75300,75300,75300,75300
2022/8/24,75200,75200,75200,75200
2022/8/23,74800,74800,74800,74800
2022/8/22,74800,74800,74800,74800
2022/8/19,74600,74600,74600,74600
2022/8/18,74500,74500,74500,74500
2022/8/17,75300,75300,75300,75300
2022/8/16,75300,75300,75300,75300
2022/8/15,75300,75300,75300,75300
2022/8/12,75800,75800,75800,75800
2022/8/10,75600,75600,75600,75600
2022/8/9,75900,75900,75900,75900
2022/8/8,74200,74200,74200,74200
2022/8/5,74200,74200,74200,74200
2022/8/4,74900,74900,74900,74900
2022/8/3,74700,74700,74700,74700
2022/8/2,74000,74000,74000,74000
2022/8/1,74300,74300,74300,74300
2022/7/29,74500,74500,74500,74500
2022/7/28,74900,74900,74900,74900
2022/7/27,74200,74200,74200,74200
2022/7/26,74500,74500,74500,74500
2022/7/25,74400,74400,74400,74400
2022/7/22,73900,73900,73900,73900
2022/7/21,73900,73900,73900,73900
2022/7/20,74300,74300,74300,74300
2022/7/19,74100,74100,74100,74100
2022/7/15,73400,73400,73400,73400
2022/7/14,74800,74800,74800,74800
2022/7/13,75300,75300,75300,75300
2022/7/12,75600,75600,75600,75600
2022/7/11,76100,76100,76100,76100
2022/7/8,85600,85600,85600,85600
2022/7/7,85400,85400,85400,85400
2022/7/6,85400,85400,85400,85400
2022/7/5,87000,87000,87000,87000
2022/7/4,86700,86700,86700,86700
2022/7/1,86400,86400,86400,86400
2022/6/30,87200,87200,87200,87200
2022/6/29,89300,89300,89300,89300
2022/6/28,89100,89100,89100,89100
2022/6/27,91200,91200,91200,91200
2022/6/24,89600,89600,89600,89600
2022/6/23,90300,90300,90300,90300
2022/6/22,90900,90900,90900,90900
2022/6/21,91500,91500,91500,91500
2022/6/20,92300,92300,92300,92300
2022/6/17,92300,92300,92300,92300
2022/6/16,92300,92300,92300,92300
2022/6/15,90700,90700,90700,90700
2022/6/14,91200,91200,91200,91200
2022/6/13,91100,91100,91100,91100
2022/6/10,91800,91800,91800,91800
2022/6/9,92300,92300,92300,92300
2022/6/8,90100,90100,90100,90100
2022/6/7,89700,89700,89700,89700
2022/6/6,89200,89200,89200,89200
2022/6/3,87500,87500,87500,87500
2022/6/2,86200,86200,86200,86200
2022/5/31,84400,84400,84400,84400
2022/5/30,84400,84400,84400,84400
2022/5/27,84100,84100,84100,84100
2022/5/26,82800,82800,82800,82800
2022/5/25,81700,81700,81700,81700
2022/5/24,81100,81100,81100,81100
2022/5/23,80600,80600,80600,80600
2022/5/20,80300,80300,80300,80300
2022/5/19,80400,80400,80400,80400
2022/5/18,84100,84100,84100,84100
2022/5/17,84400,84400,84400,84400
2022/5/16,83600,83600,83600,83600
2022/5/13,83500,83500,83500,83500
2022/5/12,83300,83300,83300,83300
2022/5/11,83300,83300,83300,83300
2022/5/10,83300,83300,83300,83300
2022/5/9,84700,84700,84700,84700
2022/5/3,85100,85100,85100,85100
2022/5/2,84300,84300,84300,84300
2022/4/28,84500,84500,84500,84500
2022/4/27,83400,83400,83400,83400
2022/4/26,85200,85200,85200,85200
2022/4/25,85100,85100,85100,85100
2022/4/22,86300,86300,86300,86300
2022/4/21,86600,86600,86600,86600
2022/4/20,85600,85600,85600,85600
2022/4/19,86600,86600,86600,86600
2022/4/18,86300,86300,86300,86300
2022/4/15,85800,85800,85800,85800
2022/4/14,85300,85300,85300,85300
2022/4/13,88600,88600,88600,88600
2022/4/12,88100,88100,88100,88100
2022/4/11,88100,88100,88100,88100
2022/4/8,85300,85300,85300,85300
2022/4/7,85700,85700,85700,85700
2022/4/6,87600,87600,87600,87600
2022/4/5,88000,88000,88000,88000
2022/4/4,86000,86000,86000,86000
2022/4/1,85600,85600,85600,85600
2022/3/31,85000,85000,85000,85000
2022/3/30,81600,81600,81600,81600
2022/3/29,81900,81900,81900,81900
2022/3/28,82500,82500,82500,82500
2022/3/25,83000,83000,83000,83000
2022/3/24,85500,85500,85500,85500
2022/3/23,85900,85900,85900,85900
2022/3/22,86100,86100,86100,86100
2022/3/18,84500,84500,84500,84500
2022/3/17,83100,83100,83100,83100
2022/3/16,83600,83600,83600,83600
2022/3/15,84000,84000,84000,84000
2022/3/14,84800,84800,84800,84800
2022/3/11,84700,84700,84700,84700
2022/3/10,84700,84700,84700,84700
2022/3/9,84400,84400,84400,84400
2022/3/8,83900,83900,83900,83900
2022/3/7,84400,84400,84400,84400
2022/3/4,82800,82800,82800,82800
2022/3/3,83200,83200,83200,83200
2022/3/2,81800,81800,81800,81800
2022/3/1,81600,81600,81600,81600
2022/2/28,81800,81800,81800,81800
2022/2/25,81700,81700,81700,81700
2022/2/24,81700,81700,81700,81700
2022/2/22,80900,80900,80900,80900
2022/2/21,80300,80300,80300,80300
2022/2/18,79900,79900,79900,79900
2022/2/17,80000,80000,80000,80000
2022/2/16,79900,79900,79900,79900
2022/2/15,81400,81400,81400,81400
2022/2/14,81500,81500,81500,81500
2022/2/10,80300,80300,80300,80300
2022/2/9,79300,79300,79300,79300
2022/2/8,80000,80000,80000,80000
2022/2/7,80200,80200,80200,80200
2022/2/4,79800,79800,79800,79800
2022/2/3,79100,79100,79100,79100
2022/2/2,78100,78100,78100,78100
2022/2/1,78200,78200,78200,78200
2022/1/31,78200,78200,78200,78200
2022/1/28,78100,78100,78100,78100
2022/1/27,78100,78100,78100,78100
2022/1/26,77300,77300,77300,77300
2022/1/25,77100,77100,77100,77100
2022/1/24,77400,77400,77400,77400
2022/1/21,77100,77100,77100,77100
2022/1/20,77800,77800,77800,77800
2022/1/19,77000,77000,77000,77000
2022/1/18,76800,76800,76800,76800
2022/1/17,76500,76500,76500,76500
2022/1/14,75900,75900,75900,75900
2022/1/13,76000,76000,76000,76000
2022/1/12,75100,75100,75100,75100
2022/1/11,73600,73600,73600,73600
2022/1/7,73800,73800,73800,73800
2022/1/6,73400,73400,73400,73400
2022/1/5,70900,70900,70900,70900
2022/1/4,70700,70700,70700,70700
2021/12/30,70600,70600,70600,70600
2021/12/29,70600,70600,70600,70600
2021/12/28,70600,70600,70600,70600
2021/12/27,70300,70300,70300,70300
2021/12/24,70300,70300,70300,70300
2021/12/23,69900,69900,69900,69900
2021/12/22,70000,70000,70000,70000
2021/12/21,70000,70000,70000,70000
2021/12/20,69900,69900,69900,69900
2021/12/17,71500,71500,71500,71500
2021/12/16,71100,71100,71100,71100
2021/12/15,70200,70200,70200,70200
2021/12/14,70300,70300,70300,70300
2021/12/13,70600,70600,70600,70600
2021/12/10,70400,70400,70400,70400
2021/12/9,70700,70700,70700,70700
2021/12/8,72500,72500,72500,72500
2021/12/7,72400,72400,72400,72400
2021/12/6,72300,72300,72300,72300
2021/12/3,72200,72200,72200,72200
2021/12/2,72200,72200,72200,72200
2021/12/1,73300,73300,73300,73300
2021/11/30,74100,74100,74100,74100
2021/11/29,74000,74000,74000,74000
2021/11/26,74900,74900,74900,74900
2021/11/25,75500,75500,75500,75500
2021/11/24,75900,75900,75900,75900
2021/11/22,75000,75000,75000,75000
2021/11/19,76100,76100,76100,76100
2021/11/18,75100,75100,75100,75100
2021/11/17,75900,75900,75900,75900
2021/11/16,76100,76100,76100,76100
2021/11/15,75900,75900,75900,75900
2021/11/12,75900,75900,75900,75900
2021/11/11,75800,75800,75800,75800
2021/11/10,76500,76500,76500,76500
2021/11/9,75900,75900,75900,75900
2021/11/8,76300,76300,76300,76300
2021/11/5,75500,75500,75500,75500
2021/11/4,75300,75300,75300,75300
2021/11/2,76400,76400,76400,76400
2021/11/1,75800,75800,75800,75800
2021/10/29,75500,75500,75500,75500
2021/10/28,75300,75300,75300,75300
2021/10/27,76000,76000,76000,76000
2021/10/26,76100,76100,76100,76100
2021/10/25,76700,76700,76700,76700
2021/10/22,76000,76000,76000,76000
2021/10/21,76100,76100,76100,76100
2021/10/20,74700,74700,74700,74700
2021/10/19,74600,74600,74600,74600
2021/10/18,74900,74900,74900,74900
2021/10/15,74100,74100,74100,74100
2021/10/14,73500,73500,73500,73500
2021/10/13,72900,72900,72900,72900
2021/10/12,72600,72600,72600,72600
2021/10/11,72700,72700,72700,72700
2021/10/8,72300,72300,72300,72300
2021/10/7,71900,71900,71900,71900
2021/10/6,72000,72000,72000,72000
2021/10/5,71300,71300,71300,71300
2021/10/4,69700,69700,69700,69700
2021/10/1,69300,69300,69300,69300
2021/9/30,69000,69000,69000,69000
2021/9/29,68300,68300,68300,68300
2021/9/28,68900,68900,68900,68900
2021/9/27,69200,69200,69200,69200
2021/9/24,67900,67900,67900,67900
2021/9/22,66900,66900,66900,66900
2021/9/21,67000,67000,67000,67000
2021/9/17,66200,66200,66200,66200
2021/9/16,65900,65900,65900,65900
2021/9/15,65300,65300,65300,65300
2021/9/14,65500,65500,65500,65500
2021/9/13,65400,65400,65400,65400
2021/9/10,64400,64400,64400,64400
2021/9/9,64900,64900,64900,64900
2021/9/8,64700,64700,64700,64700
2021/9/7,64200,64200,64200,64200
2021/9/6,63400,63400,63400,63400
2021/9/3,64300,64300,64300,64300
2021/9/2,63100,63100,63100,63100
2021/9/1,63700,63700,63700,63700
2021/8/31,63700,63700,63700,63700
2021/8/30,63600,63600,63600,63600
2021/8/27,63400,63400,63400,63400
2021/8/26,63600,63600,63600,63600
2021/8/25,63200,63200,63200,63200
2021/8/24,62200,62200,62200,62200
2021/8/23,60900,60900,60900,60900
2021/8/20,61300,61300,61300,61300
2021/8/19,61800,61800,61800,61800
2021/8/18,62900,62900,62900,62900
2021/8/17,63100,63100,63100,63100
2021/8/16,63000,63000,63000,63000
2021/8/13,64000,64000,64000,64000
2021/8/12,64300,64300,64300,64300
2021/8/11,63900,63900,63900,63900
2021/8/10,63100,63100,63100,63100
2021/8/6,64600,64600,64600,64600
2021/8/5,63700,63700,63700,63700
2021/8/4,64500,64500,64500,64500
2021/8/3,64800,64800,64800,64800
2021/8/2,65800,65800,65800,65800
2021/7/30,65600,65600,65600,65600
2021/7/29,65400,65400,65400,65400
2021/7/28,65200,65200,65200,65200
2021/7/27,65300,65300,65300,65300
2021/7/26,64600,64600,64600,64600
2021/7/21,61600,61600,61600,61600
2021/7/20,61500,61500,61500,61500
2021/7/19,64400,64400,64400,64400
2021/7/16,64900,64900,64900,64900
2021/7/15,64900,64900,64900,64900
2021/7/14,66700,66700,66700,66700
2021/7/13,66000,66000,66000,66000
2021/7/12,65900,65900,65900,65900
2021/7/9,65000,65000,65000,65000
2021/7/8,64600,64600,64600,64600
2021/7/7,65700,65700,65700,65700
2021/7/6,67800,67800,67800,67800
2021/7/5,67200,67200,67200,67200